EN

Hourly Weather Kyzylkaynar

Today, 3 August, Tuesday

Time Temperature Precipitation Wind Pressure Humidity
00:00 +26°C° 0 mm 2 mps 696 mmHg 19%
01:00 +25°C° 0 mm 2 mps 696 mmHg 20%
02:00 +25°C° 0 mm 2 mps 696 mmHg 21%
03:00 +24°C° 0 mm 2 mps 696 mmHg 21%
04:00 +24°C° 0 mm 2 mps 696 mmHg 22%
05:00 +23°C° 0 mm 2 mps 696 mmHg 23%
06:00 +26°C° 0 mm 2 mps 696 mmHg 20%
07:00 +28°C° 0 mm 1 mps 697 mmHg 18%
08:00 +31°C° 0 mm 1 mps 697 mmHg 16%
09:00 +34°C° 0 mm 2 mps 697 mmHg 14%
10:00 +35°C° 0 mm 3 mps 697 mmHg 12%
11:00 +37°C° 0 mm 4 mps 697 mmHg 11%
12:00 +38°C° 0 mm 4 mps 697 mmHg 10%
13:00 +40°C° 0 mm 4 mps 697 mmHg 9%
14:00 +41°C° 0 mm 4 mps 697 mmHg 8%
15:00 +40°C° 0 mm 4 mps 696 mmHg 8%
16:00 +40°C° 0 mm 4 mps 696 mmHg 8%
17:00 +40°C° 0 mm 5 mps 696 mmHg 7%
18:00 +37°C° 0 mm 4 mps 696 mmHg 10%
19:00 +34°C° 0 mm 4 mps 696 mmHg 12%
20:00 +30°C° 0 mm 4 mps 695 mmHg 15%
21:00 +29°C° 0 mm 3 mps 695 mmHg 15%
22:00 +28°C° 0 mm 3 mps 695 mmHg 16%
23:00 +27°C° 0 mm 3 mps 695 mmHg 17%

Tomorrow, 4 August, Wednesday

Time Temperature Precipitation Wind Pressure Humidity
00:00 +27°C° 0 mm 3 mps 695 mmHg 18%
01:00 +26°C° 0 mm 2 mps 695 mmHg 19%
02:00 +25°C° 0 mm 2 mps 695 mmHg 19%
03:00 +25°C° 0 mm 2 mps 695 mmHg 20%
04:00 +25°C° 0 mm 2 mps 696 mmHg 21%
05:00 +24°C° 0 mm 2 mps 696 mmHg 22%
06:00 +27°C° 0 mm 2 mps 696 mmHg 19%
07:00 +29°C° 0 mm 2 mps 697 mmHg 16%
08:00 +32°C° 0 mm 2 mps 697 mmHg 14%
09:00 +35°C° 0 mm 3 mps 697 mmHg 13%
10:00 +37°C° 0 mm 4 mps 697 mmHg 12%
11:00 +40°C° 0 mm 5 mps 697 mmHg 11%
12:00 +40°C° 0 mm 5 mps 697 mmHg 10%
13:00 +41°C° 0 mm 6 mps 697 mmHg 10%
14:00 +43°C° 0 mm 7 mps 696 mmHg 9%
15:00 +41°C° 0 mm 7 mps 696 mmHg 9%
16:00 +41°C° 0 mm 7 mps 696 mmHg 9%
17:00 +41°C° 0 mm 7 mps 696 mmHg 10%
18:00 +38°C° 0 mm 6 mps 696 mmHg 13%
19:00 +35°C° 0 mm 5 mps 696 mmHg 16%
20:00 +32°C° 0 mm 4 mps 696 mmHg 19%
21:00 +30°C° 0 mm 4 mps 696 mmHg 21%
22:00 +29°C° 0 mm 4 mps 696 mmHg 23%
23:00 +28°C° 0 mm 3 mps 696 mmHg 25%

Day after tomorrow, 5 August, Thursday

Time Temperature Precipitation Wind Pressure Humidity
00:00 +28°C° 0 mm 3 mps 696 mmHg 26%
01:00 +27°C° 0 mm 2 mps 696 mmHg 28%
02:00 +26°C° 0 mm 2 mps 696 mmHg 29%
03:00 +25°C° 0 mm 2 mps 696 mmHg 30%
04:00 +25°C° 0 mm 2 mps 696 mmHg 32%
05:00 +24°C° 0 mm 1 mps 696 mmHg 33%
06:00 +26°C° 0 mm 1 mps 697 mmHg 30%
07:00 +28°C° 0 mm 1 mps 697 mmHg 27%
08:00 +30°C° 0 mm 1 mps 698 mmHg 24%
09:00 +32°C° 0 mm 2 mps 698 mmHg 22%
10:00 +34°C° 0 mm 3 mps 698 mmHg 19%
11:00 +36°C° 0 mm 4 mps 697 mmHg 17%
12:00 +37°C° 0 mm 5 mps 697 mmHg 16%
13:00 +39°C° 0 mm 6 mps 697 mmHg 15%
14:00 +40°C° 0 mm 6 mps 697 mmHg 15%
15:00 +38°C° 0 mm 7 mps 697 mmHg 17%
16:00 +36°C° 0 mm 7 mps 697 mmHg 20%
17:00 +35°C° 0 mm 7 mps 697 mmHg 22%
18:00 +33°C° 0 mm 6 mps 697 mmHg 26%
19:00 +30°C° 0 mm 6 mps 697 mmHg 30%
20:00 +28°C° 0 mm 5 mps 697 mmHg 34%
21:00 +27°C° 0 mm 5 mps 697 mmHg 34%
22:00 +27°C° 0 mm 4 mps 697 mmHg 35%
23:00 +26°C° 0 mm 3 mps 697 mmHg 35%

6 August, Friday

Time Temperature Precipitation Wind Pressure Humidity
00:00 +25°C° 0 mm 3 mps 696 mmHg 37%
01:00 +24°C° 0 mm 2 mps 696 mmHg 39%
02:00 +23°C° 0 mm 1 mps 695 mmHg 40%
03:00 +23°C° 0 mm 1 mps 695 mmHg 41%
04:00 +23°C° 0 mm 1 mps 695 mmHg 41%
05:00 +22°C° 0 mm 1 mps 695 mmHg 42%
06:00 +25°C° 0 mm 1 mps 696 mmHg 37%
07:00 +27°C° 0 mm 1 mps 696 mmHg 32%
08:00 +29°C° 0 mm 1 mps 697 mmHg 27%
09:00 +31°C° 0 mm 2 mps 697 mmHg 24%
10:00 +34°C° 0 mm 3 mps 697 mmHg 21%
11:00 +36°C° 0 mm 4 mps 697 mmHg 18%
12:00 +37°C° 0 mm 5 mps 696 mmHg 16%
13:00 +39°C° 0 mm 5 mps 696 mmHg 15%
14:00 +40°C° 0 mm 5 mps 696 mmHg 14%
15:00 +40°C° 0 mm 5 mps 696 mmHg 14%
16:00 +39°C° 0 mm 5 mps 696 mmHg 14%
17:00 +39°C° 0 mm 5 mps 696 mmHg 14%
18:00 +35°C° 0 mm 5 mps 696 mmHg 16%
19:00 +33°C° 0 mm 4 mps 695 mmHg 19%
20:00 +29°C° 0 mm 3 mps 695 mmHg 21%
21:00 +28°C° 0 mm 3 mps 695 mmHg 24%
22:00 +27°C° 0 mm 2 mps 695 mmHg 26%
23:00 +25°C° 0 mm 2 mps 695 mmHg 28%

7 August, Saturday

Time Temperature Precipitation Wind Pressure Humidity
00:00 +25°C° 0 mm 2 mps 695 mmHg 30%
01:00 +25°C° 0 mm 2 mps 694 mmHg 32%
02:00 +24°C° 0 mm 2 mps 694 mmHg 33%
03:00 +24°C° 0 mm 1 mps 694 mmHg 34%
04:00 +23°C° 0 mm 1 mps 694 mmHg 34%
05:00 +23°C° 0 mm 1 mps 695 mmHg 35%
06:00 +25°C° 0 mm 1 mps 695 mmHg 31%
07:00 +28°C° 0 mm 1 mps 696 mmHg 27%
08:00 +30°C° 0 mm 1 mps 696 mmHg 23%
09:00 +32°C° 0 mm 2 mps 696 mmHg 20%
10:00 +35°C° 0 mm 3 mps 696 mmHg 17%
11:00 +37°C° 0 mm 5 mps 696 mmHg 14%
12:00 +39°C° 0 mm 5 mps 696 mmHg 13%
13:00 +40°C° 0 mm 5 mps 696 mmHg 13%
14:00 +40°C° 0 mm 5 mps 696 mmHg 12%
15:00 +40°C° 0 mm 5 mps 696 mmHg 12%
16:00 +40°C° 0 mm 5 mps 696 mmHg 12%
17:00 +39°C° 0 mm 5 mps 696 mmHg 12%
18:00 +36°C° 0 mm 5 mps 697 mmHg 16%
19:00 +34°C° 0 mm 5 mps 697 mmHg 19%
20:00 +32°C° 0 mm 4 mps 697 mmHg 23%
21:00 +29°C° 0 mm 4 mps 697 mmHg 24%
22:00 +28°C° 0 mm 4 mps 697 mmHg 25%
23:00 +27°C° 0 mm 3 mps 696 mmHg 27%

8 August, Sunday

Time Temperature Precipitation Wind Pressure Humidity
00:00 +26°C° 0 mm 3 mps 696 mmHg 27%
01:00 +26°C° 0 mm 2 mps 696 mmHg 28%
02:00 +26°C° 0 mm 2 mps 696 mmHg 28%
03:00 +25°C° 0 mm 2 mps 696 mmHg 29%
04:00 +25°C° 0 mm 2 mps 696 mmHg 30%
05:00 +24°C° 0 mm 1 mps 697 mmHg 30%
06:00 +27°C° 0 mm 1 mps 697 mmHg 26%
07:00 +30°C° 0 mm 1 mps 698 mmHg 22%
08:00 +32°C° 0 mm 1 mps 698 mmHg 19%
09:00 +34°C° 0 mm 1 mps 698 mmHg 16%
10:00 +36°C° 0 mm 2 mps 698 mmHg 14%
11:00 +38°C° 0 mm 3 mps 698 mmHg 12%
12:00 +40°C° 0 mm 4 mps 698 mmHg 11%
13:00 +41°C° 0 mm 5 mps 698 mmHg 11%
14:00 +41°C° 0 mm 5 mps 698 mmHg 10%
15:00 +41°C° 0 mm 5 mps 698 mmHg 10%
16:00 +41°C° 0 mm 5 mps 698 mmHg 10%
17:00 +41°C° 0 mm 5 mps 698 mmHg 10%
18:00 +37°C° 0 mm 4 mps 698 mmHg 13%
19:00 +34°C° 0 mm 3 mps 698 mmHg 15%
20:00 +30°C° 0 mm 2 mps 697 mmHg 17%
21:00 +29°C° 0 mm 2 mps 698 mmHg 18%
22:00 +28°C° 0 mm 2 mps 698 mmHg 19%
23:00 +28°C° 0 mm 2 mps 698 mmHg 20%
Show more